Back to catalog

CZ-4 DEB

AliveSSO
NORAD 26306·DEBRIS·🇨🇳 China

Launched Oct 14, 1999 from Taiyuan Satellite Launch Center

Loading…

Next Passes (next 24 hours)

TLE

FreshSource: Space-Track

Epoch: Sep 14, 2026, 09:17 UTC

1 26306U 99057GP  26257.38699253  .00000148  00000-0  61681-4 0  9993
2 26306  98.7357 307.0963 0094670 301.0942  69.0824 14.38237875386094

Track CZ-4 DEB in real time with AllMySat

Download on the App Store